Weather History for Haleyville, AL

Change the Weather History Date:

Sunday, April 28, 2013

  Actual Average (KJFX) Record (KJFX)
Temperature  
Mean Temperature 60 °F -  
Max Temperature 64 °F 76 °F 88 °F (1989)
Min Temperature 57 °F 48 °F 33 °F (1967)
Degree Days  
Heating Degree Days 4    
Growing Degree Days 10 (Base 50)    
Moisture  
Dew Point 60 °F    
Average Humidity 98    
Maximum Humidity 100    
Minimum Humidity 88    
Precipitation  
Precipitation 0.71 in - - ()
Sea Level Pressure  
Sea Level Pressure 30.01 in    
Wind  
Wind Speed 9 mph (SSW)    
Max Wind Speed 17 mph    
Max Gust Speed 23 mph    
Visibility 5 miles    
Events Rain , Thunderstorm    
Averages and records for this station are not official NWS values.
T = Trace of Precipitation, MM = Missing Value Source: NWS Daily Summary

Daily Weather History Graph

Daily Weather History Graph

Search for Another Location

Airport:

Trip Planner

Search our weather history database for the weather conditions in past years. The results will help you decide how hot, cold, wet, or windy it might be!

Date:

Astronomy

Apr. 28, 2013 Rise Set
Actual Time 6:03 AM CDT 7:32 PM CDT
Civil Twilight 5:37 AM CDT 7:59 PM CDT
Nautical Twilight 5:05 AM CDT 8:31 PM CDT
Astronomical Twilight 4:31 AM CDT 9:04 PM CDT
Moon 10:57 PM CDT (4/28) 8:24 AM CDT (4/28)
Length of Visible Light 14h 22m
Length of Day
13h 28m
Waning Gibbous, 88% of the Moon is Illuminated
Apr 28
Waning Gibbous
May 2
Last Quarter
May 9
New
May 17
First Quarter
May 24
Full

Hourly Weather History & Observations

Time (CDT) Temp. Dew Point Humidity Pressure Visibility Wind Dir Wind Speed Gust Speed Precip Events Conditions
12:56 AM 64.9 °F 61.9 °F 90% 30.07 in 10.0 mi SSW 10.4 mph - N/A Thunderstorm Scattered Clouds
1:14 AM 64.4 °F 62.6 °F 94% 30.02 in 10.0 mi South 10.4 mph - N/A   Scattered Clouds
1:35 AM 64.4 °F 62.6 °F 94% 30.01 in 10.0 mi South 9.2 mph - N/A Thunderstorm Scattered Clouds
1:56 AM 64.9 °F 61.9 °F 90% 30.05 in 10.0 mi SSW 9.2 mph - N/A Thunderstorm Thunderstorm
2:13 AM 64.4 °F 62.6 °F 94% 30.04 in 7.0 mi West 10.4 mph - 0.01 in Rain , Thunderstorm Heavy Thunderstorms and Rain
2:21 AM 64.4 °F 62.6 °F 94% 30.03 in 1.8 mi WSW 11.5 mph 23.0 mph 0.08 in Rain , Thunderstorm Heavy Thunderstorms and Rain
2:26 AM 64.4 °F 62.6 °F 94% 30.02 in 1.2 mi SW 15.0 mph 23.0 mph 0.14 in Rain , Thunderstorm Heavy Thunderstorms and Rain
2:29 AM 64.4 °F 62.6 °F 94% 30.00 in 1.5 mi South 11.5 mph 19.6 mph 0.15 in Rain , Thunderstorm Heavy Thunderstorms and Rain
2:37 AM 62.6 °F 60.8 °F 94% 30.01 in 3.0 mi SW 16.1 mph 21.9 mph 0.17 in Rain , Thunderstorm Thunderstorms and Rain
2:49 AM 60.8 °F 59.0 °F 94% 30.00 in 7.0 mi SSW 9.2 mph - 0.17 in Rain , Thunderstorm Light Thunderstorms and Rain
2:56 AM 59.9 °F 57.9 °F 93% 30.04 in 10.0 mi SSW 8.1 mph - 0.17 in Thunderstorm Mostly Cloudy
3:12 AM 60.8 °F 57.2 °F 88% 29.99 in 10.0 mi SW 5.8 mph - 0.01 in   Partly Cloudy
3:38 AM 59.0 °F 59.0 °F 100% 29.99 in 10.0 mi SSW 5.8 mph - 0.01 in Thunderstorm Mostly Cloudy
3:56 AM 59.9 °F 59.0 °F 97% 30.03 in 9.0 mi SSW 4.6 mph - 0.01 in Rain , Thunderstorm Light Thunderstorms and Rain
4:10 AM 60.8 °F 60.8 °F 100% 30.00 in 9.0 mi SSW 4.6 mph - 0.00 in Rain , Thunderstorm Light Thunderstorms and Rain
4:31 AM 60.8 °F 60.8 °F 100% 29.99 in 7.0 mi South 6.9 mph - 0.00 in   Overcast
4:40 AM 62.6 °F 62.6 °F 100% 29.98 in 5.0 mi South 10.4 mph - 0.00 in   Overcast
4:56 AM 63.0 °F 63.0 °F 100% 30.02 in 4.0 mi SSW 13.8 mph - 0.00 in   Overcast
5:46 AM 64.4 °F 64.4 °F 100% 29.98 in 5.0 mi SSW 10.4 mph - 0.01 in   Overcast
5:56 AM 63.9 °F 63.9 °F 100% 30.02 in 5.0 mi SW 11.5 mph - 0.01 in   Overcast
6:56 AM 64.9 °F 63.9 °F 96% 30.04 in 5.0 mi SSW 12.7 mph 18.4 mph N/A   Overcast
7:56 AM 64.9 °F 64.9 °F 100% 30.05 in 6.0 mi SW 10.4 mph 19.6 mph N/A   Overcast
8:56 AM 64.9 °F 64.9 °F 100% 30.04 in 3.0 mi SW 12.7 mph - 0.00 in Rain , Thunderstorm Rain
9:05 AM 64.4 °F 64.4 °F 100% 30.00 in 2.5 mi SW 11.5 mph - 0.01 in Rain , Thunderstorm Rain
9:19 AM 64.4 °F 64.4 °F 100% 29.99 in 3.0 mi SSW 13.8 mph 19.6 mph 0.02 in Rain , Thunderstorm Light Thunderstorms and Rain
9:25 AM 64.4 °F 64.4 °F 100% 29.98 in 1.8 mi SW 13.8 mph 21.9 mph 0.04 in Rain , Thunderstorm Heavy Thunderstorms and Rain
9:34 AM 64.4 °F 62.6 °F 94% 30.00 in 3.0 mi SW 17.3 mph 23.0 mph 0.05 in Rain , Thunderstorm Light Thunderstorms and Rain
9:38 AM 62.6 °F 60.8 °F 94% 30.01 in 3.0 mi SW 16.1 mph 23.0 mph 0.05 in Rain , Thunderstorm Thunderstorms and Rain
9:47 AM 62.6 °F 60.8 °F 94% 30.01 in 2.5 mi SW 9.2 mph - 0.06 in Rain , Thunderstorm Thunderstorms and Rain
9:56 AM 61.9 °F 61.0 °F 97% 30.04 in 2.5 mi SW 8.1 mph - 0.07 in Rain , Thunderstorm Rain
10:03 AM 62.6 °F 62.6 °F 100% 30.00 in 7.0 mi SSW 4.6 mph - 0.00 in Rain , Thunderstorm Light Thunderstorms and Rain
10:11 AM 62.6 °F 62.6 °F 100% 30.00 in 9.0 mi SW 4.6 mph - 0.01 in Rain Light Rain
10:21 AM 64.4 °F 62.6 °F 94% 30.00 in 9.0 mi SW 4.6 mph - 0.01 in   Mostly Cloudy
10:25 AM 64.4 °F 62.6 °F 94% 30.00 in 9.0 mi SSW 6.9 mph - 0.01 in Thunderstorm Mostly Cloudy
10:38 AM 62.6 °F 62.6 °F 100% 30.02 in 6.0 mi WNW 6.9 mph - 0.01 in Rain , Thunderstorm Light Thunderstorms and Rain
10:44 AM 62.6 °F 62.6 °F 100% 30.03 in 1.5 mi Variable 6.9 mph - 0.08 in Rain , Thunderstorm Heavy Thunderstorms and Rain
10:46 AM 62.6 °F 62.6 °F 100% 30.03 in 1.0 mi SSW 12.7 mph 16.1 mph 0.09 in Rain , Thunderstorm Heavy Thunderstorms and Rain
10:56 AM 61.0 °F 57.9 °F 90% 30.07 in 2.0 mi WSW 13.8 mph - 0.11 in Rain , Thunderstorm Heavy Thunderstorms and Rain
11:09 AM 60.8 °F 57.2 °F 88% 30.02 in 1.2 mi SSW 9.2 mph 17.3 mph 0.05 in Rain , Thunderstorm Heavy Thunderstorms and Rain
11:20 AM 59.0 °F 57.2 °F 94% 30.03 in 2.0 mi SW 13.8 mph - 0.07 in Rain , Thunderstorm Rain
11:30 AM 59.0 °F 57.2 °F 94% 30.03 in 1.2 mi SW 12.7 mph 18.4 mph 0.11 in Rain , Thunderstorm Heavy Thunderstorms and Rain
11:39 AM 57.2 °F 55.4 °F 94% 30.02 in 1.8 mi WSW 10.4 mph 18.4 mph 0.13 in Rain , Thunderstorm Heavy Thunderstorms and Rain
11:56 AM 57.9 °F 56.8 °F 96% 30.07 in 2.0 mi WSW 11.5 mph - 0.18 in Rain , Thunderstorm Heavy Thunderstorms and Rain
12:11 PM 57.2 °F 57.2 °F 100% 30.02 in 1.8 mi SSW 10.4 mph - 0.04 in Rain , Thunderstorm Heavy Thunderstorms and Rain
12:32 PM 57.2 °F 57.2 °F 100% 29.99 in 1.0 mi SE 9.2 mph - 0.14 in Rain , Thunderstorm Heavy Thunderstorms and Rain
12:34 PM 57.2 °F 57.2 °F 100% 30.02 in 1.2 mi SSW 8.1 mph - 0.14 in Rain , Thunderstorm Heavy Thunderstorms and Rain
12:39 PM 57.2 °F 57.2 °F 100% 30.01 in 2.0 mi SSW 8.1 mph - 0.14 in Rain Rain
12:44 PM 57.2 °F 57.2 °F 100% 30.01 in 4.0 mi South 4.6 mph - 0.15 in Rain , Thunderstorm Thunderstorms and Rain
12:56 PM 57.9 °F 57.9 °F 100% 30.05 in 7.0 mi SSW 5.8 mph - 0.15 in Rain , Thunderstorm Light Thunderstorms and Rain
1:05 PM 57.2 °F 57.2 °F 100% 30.02 in 10.0 mi SSW 6.9 mph - 0.00 in Rain Light Rain
1:36 PM 59.0 °F 59.0 °F 100% 29.98 in 10.0 mi SSW 5.8 mph - 0.01 in Rain Light Rain
1:47 PM 59.0 °F 59.0 °F 100% 29.97 in 10.0 mi Calm Calm - 0.01 in   Mostly Cloudy
1:56 PM 59.9 °F 59.9 °F 100% 30.01 in 10.0 mi SW 3.5 mph - 0.01 in   Mostly Cloudy
2:56 PM 59.9 °F 59.9 °F 100% 30.04 in 10.0 mi SSW 8.1 mph - N/A   Overcast
3:08 PM 60.8 °F 60.8 °F 100% 30.01 in 1.8 mi Calm Calm - N/A   Overcast
3:28 PM 60.8 °F 60.8 °F 100% 30.01 in 1.2 mi SSW 6.9 mph - N/A   Overcast
3:36 PM 60.8 °F 60.8 °F 100% 30.01 in 2.0 mi SSW 6.9 mph - N/A   Overcast
3:56 PM 59.9 °F 59.9 °F 100% 30.04 in 2.0 mi SSW 6.9 mph - N/A   Overcast
4:09 PM 60.8 °F 60.8 °F 100% 29.99 in 3.0 mi South 6.9 mph - N/A   Overcast
4:20 PM 60.8 °F 60.8 °F 100% 29.99 in 1.8 mi SSW 8.1 mph - N/A   Overcast
4:31 PM 60.8 °F 60.8 °F 100% 29.99 in 2.5 mi SSW 8.1 mph - N/A   Overcast
4:41 PM 60.8 °F 60.8 °F 100% 29.99 in 1.5 mi SW 8.1 mph - N/A   Overcast
4:56 PM 59.9 °F 59.9 °F 100% 30.02 in 3.0 mi WSW 6.9 mph - N/A   Overcast
5:19 PM 60.8 °F 60.8 °F 100% 29.98 in 9.0 mi SW 8.1 mph - N/A   Overcast
5:45 PM 60.8 °F 60.8 °F 100% 29.98 in 9.0 mi SSW 4.6 mph - N/A   Mostly Cloudy
5:56 PM 59.9 °F 59.9 °F 100% 30.01 in 8.0 mi SW 5.8 mph - N/A   Mostly Cloudy
6:56 PM 59.9 °F 59.9 °F 100% 30.02 in 8.0 mi SSW 5.8 mph - N/A   Overcast
7:19 PM 59.0 °F 59.0 °F 100% 29.98 in 7.0 mi South 4.6 mph - N/A   Overcast
7:56 PM 59.0 °F 59.0 °F 100% 30.02 in 8.0 mi Calm Calm - N/A   Overcast
8:56 PM 57.9 °F 57.9 °F 100% 30.03 in 4.0 mi Calm Calm - N/A   Overcast
9:56 PM 57.9 °F 57.9 °F 100% 30.03 in 6.0 mi Calm Calm - N/A   Overcast
10:56 PM 57.9 °F 57.9 °F 100% 30.04 in 4.0 mi Calm Calm - N/A   Overcast
11:56 PM 57.9 °F 57.9 °F 100% 30.05 in 6.0 mi WSW 8.1 mph - N/A   Overcast